[Date Prev][Date Next][Thread Prev][Thread Next] - [Date Index][Thread Index][Author Index]

2 Line ISS Keps 4-11



ISS
1 25544U 98067A   02101.18347141  .00009294  00000-0  11638-3 0  2868
2 25544  51.6381  29.5906 0002781  29.3228 118.6816 15.60564670193588


----
Via the sarex mailing list at AMSAT.ORG courtesy of AMSAT-NA.
To unsubscribe, send "unsubscribe sarex" to Majordomo@amsat.org



AMSAT Top AMSAT Home